Simultaneous Nadir Overpasses (SNOs) Predictions

Prediction of SNOs between GOES-17 and LANDSAT-8 Satellite Orbit:

Table of predicted SNOs for the next 14.0 days since TLE Epoch: 2/14/2025
Index Date Time (GOES-17) GOES-17 Lat,Lon LANDSAT-8 Lat,Lon Distance(km) Time Diff (sec)
1 02/15/2025 05:25:18 0.00,-104.40 -0.87,-108.47 463.74 80
2 02/16/2025 16:54:22 -0.00,-104.23 -0.86,-100.32 444.68 80
3 02/17/2025 05:13:05 0.00,-104.18 -0.31,-105.50 151.47 80
4 02/19/2025 05:03:32 0.00,-103.96 0.28,-102.54 161.00 80
5 02/19/2025 17:22:07 -0.00,-103.89 0.83,-107.69 432.07 80
6 02/21/2025 04:51:19 0.00,-103.73 0.89, -99.57 473.27 80
7 02/21/2025 17:09:54 -0.00,-103.67 0.21,-104.73 119.76 80
8 02/23/2025 17:00:20 -0.00,-103.44 -0.38,-101.75 192.48 80
9 02/24/2025 05:19:03 0.00,-103.39 -0.76,-106.94 403.22 80
10 02/26/2025 05:06:49 0.00,-103.17 -0.14,-103.97 90.83 80
11 02/28/2025 04:54:34 0.01,-102.94 0.45,-101.00 222.10 80
12 02/28/2025 17:15:48 -0.01,-102.88 0.69,-106.14 371.12 80
